Wetterdaten: Montag, 11.11.2013
Datum Zeit Temp. Auen Feucht Auen Luftdruck Regen Richtung Richtung Windben
11.11.2013 00:00 1,8 C 93 % 1018,5 hPa 0,0 mm W 270 11,3 km/h (2 Bft)
11.11.2013 00:05 1,7 C 93 % 1018,6 hPa 0,2 mm W 270 14,5 km/h (3 Bft)
11.11.2013 00:10 1,7 C 93 % 1018,7 hPa 0,2 mm W 270 16,1 km/h (3 Bft)
11.11.2013 00:15 1,6 C 93 % 1018,9 hPa 0,2 mm W 270 11,3 km/h (2 Bft)
11.11.2013 00:20 1,6 C 93 % 1019,0 hPa 0,2 mm W 270 12,9 km/h (3 Bft)
11.11.2013 00:25 1,6 C 93 % 1019,1 hPa 0,2 mm W 270 12,9 km/h (3 Bft)
11.11.2013 00:30 1,6 C 93 % 1019,2 hPa 0,2 mm W 270 14,5 km/h (3 Bft)
11.11.2013 00:35 1,6 C 93 % 1019,3 hPa 0,2 mm W 270 14,5 km/h (3 Bft)
11.11.2013 00:40 1,6 C 93 % 1019,4 hPa 0,2 mm W 270 11,3 km/h (2 Bft)
11.11.2013 00:45 1,5 C 93 % 1019,4 hPa 0,0 mm W 270 11,3 km/h (2 Bft)
11.11.2013 00:50 1,5 C 93 % 1019,6 hPa 0,4 mm W 270 11,3 km/h (2 Bft)
11.11.2013 00:55 1,5 C 93 % 1019,7 hPa 0,0 mm W 270 12,9 km/h (3 Bft)
11.11.2013 01:00 1,5 C 93 % 1019,8 hPa 0,2 mm W 270 14,5 km/h (3 Bft)
11.11.2013 01:05 1,6 C 93 % 1019,9 hPa 0,0 mm W 270 12,9 km/h (3 Bft)
11.11.2013 01:10 1,7 C 93 % 1020,0 hPa 0,2 mm W 270 8,0 km/h (2 Bft)
11.11.2013 01:15 1,7 C 93 % 1020,1 hPa 0,0 mm W 270 11,3 km/h (2 Bft)
11.11.2013 01:20 1,8 C 93 % 1020,3 hPa 0,0 mm W 270 11,3 km/h (2 Bft)
11.11.2013 01:25 1,8 C 93 % 1020,4 hPa 0,2 mm W 270 8,0 km/h (2 Bft)
11.11.2013 01:30 1,8 C 93 % 1020,6 hPa 0,2 mm W 270 9,7 km/h (2 Bft)
11.11.2013 01:35 1,9 C 93 % 1020,6 hPa 0,0 mm W 270 9,7 km/h (2 Bft)
11.11.2013 01:40 1,9 C 93 % 1020,8 hPa 0,0 mm W-SW 247 8,0 km/h (2 Bft)
11.11.2013 01:45 1,9 C 93 % 1020,8 hPa 0,0 mm W 270 6,4 km/h (2 Bft)
11.11.2013 01:50 1,9 C 93 % 1020,9 hPa 0,2 mm W 270 9,7 km/h (2 Bft)
11.11.2013 01:55 2,1 C 93 % 1021,0 hPa 0,0 mm W 270 8,0 km/h (2 Bft)
11.11.2013 02:00 2,1 C 93 % 1021,2 hPa 0,2 mm W 270 12,9 km/h (3 Bft)
11.11.2013 02:05 2,1 C 93 % 1021,3 hPa 0,0 mm W 270 9,7 km/h (2 Bft)
11.11.2013 02:10 2,1 C 93 % 1021,3 hPa 0,0 mm W 270 12,9 km/h (3 Bft)
11.11.2013 02:15 2,1 C 93 % 1021,4 hPa 0,2 mm W 270 8,0 km/h (2 Bft)
11.11.2013 02:20 2,1 C 93 % 1021,5 hPa 0,2 mm W 270 11,3 km/h (2 Bft)
11.11.2013 02:25 2,0 C 93 % 1021,6 hPa 0,0 mm W 270 9,7 km/h (2 Bft)
11.11.2013 02:30 1,9 C 93 % 1021,7 hPa 0,0 mm W 270 4,8 km/h (1 Bft)
11.11.2013 02:35 1,9 C 93 % 1021,8 hPa 0,0 mm W 270 8,0 km/h (2 Bft)
11.11.2013 02:40 1,9 C 93 % 1021,9 hPa 0,2 mm W 270 8,0 km/h (2 Bft)
11.11.2013 02:45 1,9 C 93 % 1021,9 hPa 0,2 mm W 270 9,7 km/h (2 Bft)
11.11.2013 02:50 1,8 C 93 % 1022,1 hPa 0,0 mm W 270 8,0 km/h (2 Bft)
11.11.2013 02:55 1,8 C 93 % 1022,1 hPa 0,0 mm W 270 4,8 km/h (1 Bft)
11.11.2013 03:00 1,7 C 93 % 1022,2 hPa 0,2 mm W 270 6,4 km/h (2 Bft)
11.11.2013 03:05 1,8 C 93 % 1022,4 hPa 0,2 mm W 270 9,7 km/h (2 Bft)
11.11.2013 03:10 1,8 C 93 % 1022,4 hPa 0,0 mm W 270 8,0 km/h (2 Bft)
11.11.2013 03:15 1,7 C 93 % 1022,5 hPa 0,0 mm W 270 4,8 km/h (1 Bft)
11.11.2013 03:20 1,7 C 93 % 1022,5 hPa 0,2 mm W 270 4,8 km/h (1 Bft)
11.11.2013 03:25 1,7 C 93 % 1022,6 hPa 0,0 mm W 270 4,8 km/h (1 Bft)
11.11.2013 03:30 1,7 C 93 % 1022,8 hPa 0,2 mm W 270 6,4 km/h (2 Bft)
11.11.2013 03:35 1,7 C 93 % 1022,9 hPa 0,0 mm W 270 4,8 km/h (1 Bft)
11.11.2013 03:40 1,7 C 93 % 1023,0 hPa 0,0 mm W 270 3,2 km/h (1 Bft)
11.11.2013 03:45 1,7 C 93 % 1023,0 hPa 0,2 mm W-NW 292 3,2 km/h (1 Bft)
11.11.2013 03:50 1,8 C 93 % 1023,1 hPa 0,0 mm W 270 4,8 km/h (1 Bft)
11.11.2013 03:55 1,8 C 93 % 1023,3 hPa 0,0 mm W 270 4,8 km/h (1 Bft)
11.11.2013 04:00 1,9 C 93 % 1023,4 hPa 0,2 mm W 270 6,4 km/h (2 Bft)
11.11.2013 04:05 1,8 C 93 % 1023,5 hPa 0,0 mm W 270 9,7 km/h (2 Bft)
11.11.2013 04:10 1,7 C 93 % 1023,5 hPa 0,0 mm W 270 8,0 km/h (2 Bft)
11.11.2013 04:15 1,7 C 93 % 1023,6 hPa 0,0 mm W 270 4,8 km/h (1 Bft)
11.11.2013 04:20 1,7 C 93 % 1023,7 hPa 0,0 mm W 270 4,8 km/h (1 Bft)
11.11.2013 04:25 1,8 C 93 % 1023,8 hPa 0,0 mm W-NW 292 3,2 km/h (1 Bft)
11.11.2013 04:30 1,8 C 93 % 1023,9 hPa 0,0 mm W-NW 292 6,4 km/h (2 Bft)
11.11.2013 04:35 1,8 C 93 % 1024,0 hPa 0,0 mm W 270 3,2 km/h (1 Bft)
11.11.2013 04:40 1,8 C 93 % 1024,1 hPa 0,0 mm W 270 3,2 km/h (1 Bft)
11.11.2013 04:45 1,8 C 93 % 1024,2 hPa 0,0 mm W 270 3,2 km/h (1 Bft)
11.11.2013 04:50 1,9 C 93 % 1024,2 hPa 0,0 mm W 270 4,8 km/h (1 Bft)
11.11.2013 04:55 1,9 C 93 % 1024,4 hPa 0,0 mm W 270 3,2 km/h (1 Bft)
11.11.2013 05:00 2,0 C 93 % 1024,4 hPa 0,0 mm W 270 3,2 km/h (1 Bft)
11.11.2013 05:05 2,1 C 93 % 1024,7 hPa 0,0 mm W 270 6,4 km/h (2 Bft)
11.11.2013 05:10 2,3 C 93 % 1024,7 hPa 0,0 mm W 270 8,0 km/h (2 Bft)
11.11.2013 05:15 2,3 C 93 % 1024,8 hPa 0,0 mm W 270 4,8 km/h (1 Bft)
11.11.2013 05:20 2,4 C 93 % 1024,9 hPa 0,0 mm W 270 3,2 km/h (1 Bft)
11.11.2013 05:25 2,4 C 93 % 1024,9 hPa 0,0 mm W 270 3,2 km/h (1 Bft)
11.11.2013 05:30 2,5 C 93 % 1024,9 hPa 0,0 mm W 270 4,8 km/h (1 Bft)
11.11.2013 05:35 2,6 C 93 % 1025,0 hPa 0,0 mm W 270 3,2 km/h (1 Bft)
11.11.2013 05:40 2,6 C 93 % 1025,1 hPa 0,0 mm W 270 3,2 km/h (1 Bft)
11.11.2013 05:45 2,7 C 93 % 1025,3 hPa 0,0 mm W 270 4,8 km/h (1 Bft)
11.11.2013 05:50 2,8 C 93 % 1025,4 hPa 0,0 mm W 270 4,8 km/h (1 Bft)
11.11.2013 05:55 2,8 C 93 % 1025,4 hPa 0,0 mm W 270 3,2 km/h (1 Bft)
11.11.2013 06:00 2,9 C 93 % 1025,6 hPa 0,0 mm N 0 0,0 km/h (0 Bft)
11.11.2013 06:05 2,8 C 93 % 1025,6 hPa 0,0 mm N 0 0,0 km/h (0 Bft)
11.11.2013 06:10 2,8 C 93 % 1025,7 hPa 0,0 mm W 270 3,2 km/h (1 Bft)
11.11.2013 06:15 2,8 C 93 % 1025,8 hPa 0,0 mm W 270 3,2 km/h (1 Bft)
11.11.2013 06:20 2,9 C 93 % 1025,9 hPa 0,0 mm W 270 1,6 km/h (1 Bft)
11.11.2013 06:25 2,9 C 93 % 1026,0 hPa 0,0 mm W 270 6,4 km/h (2 Bft)
11.11.2013 06:30 2,9 C 93 % 1026,1 hPa 0,0 mm W 270 4,8 km/h (1 Bft)
11.11.2013 06:35 3,0 C 93 % 1026,1 hPa 0,0 mm W 270 11,3 km/h (2 Bft)
11.11.2013 06:40 3,0 C 93 % 1026,2 hPa 0,0 mm W 270 11,3 km/h (2 Bft)
11.11.2013 06:45 3,1 C 93 % 1026,3 hPa 0,0 mm W 270 11,3 km/h (2 Bft)
11.11.2013 06:50 3,1 C 93 % 1026,4 hPa 0,0 mm W 270 9,7 km/h (2 Bft)
11.11.2013 06:55 3,1 C 93 % 1026,5 hPa 0,0 mm W 270 8,0 km/h (2 Bft)
11.11.2013 07:00 3,1 C 93 % 1026,5 hPa 0,0 mm W 270 8,0 km/h (2 Bft)
11.11.2013 07:05 3,1 C 93 % 1026,6 hPa 0,0 mm W 270 9,7 km/h (2 Bft)
11.11.2013 07:10 3,1 C 93 % 1026,8 hPa 0,0 mm W 270 6,4 km/h (2 Bft)
11.11.2013 07:15 3,1 C 93 % 1026,8 hPa 0,0 mm W 270 9,7 km/h (2 Bft)
11.11.2013 07:20 3,1 C 93 % 1026,9 hPa 0,0 mm W 270 8,0 km/h (2 Bft)
11.11.2013 07:25 3,1 C 93 % 1027,0 hPa 0,0 mm W 270 8,0 km/h (2 Bft)
11.11.2013 07:30 3,1 C 93 % 1027,1 hPa 0,0 mm W 270 9,7 km/h (2 Bft)
11.11.2013 07:35 3,1 C 93 % 1027,2 hPa 0,0 mm W 270 8,0 km/h (2 Bft)
11.11.2013 07:40 3,1 C 93 % 1027,2 hPa 0,0 mm W 270 8,0 km/h (2 Bft)
11.11.2013 07:45 3,2 C 93 % 1027,4 hPa 0,0 mm W 270 4,8 km/h (1 Bft)
11.11.2013 07:50 3,2 C 93 % 1027,5 hPa 0,0 mm W 270 6,4 km/h (2 Bft)
11.11.2013 07:55 3,2 C 93 % 1027,6 hPa 0,0 mm W 270 9,7 km/h (2 Bft)
11.11.2013 08:00 3,2 C 93 % 1027,6 hPa 0,0 mm W 270 9,7 km/h (2 Bft)
11.11.2013 08:05 3,2 C 93 % 1027,7 hPa 0,0 mm W 270 8,0 km/h (2 Bft)
11.11.2013 08:10 3,2 C 93 % 1027,8 hPa 0,0 mm W 270 6,4 km/h (2 Bft)
11.11.2013 08:15 3,2 C 93 % 1027,9 hPa 0,0 mm W 270 8,0 km/h (2 Bft)
11.11.2013 08:20 3,3 C 93 % 1027,9 hPa 0,0 mm W 270 6,4 km/h (2 Bft)
11.11.2013 08:25 3,3 C 93 % 1028,1 hPa 0,0 mm W 270 8,0 km/h (2 Bft)
11.11.2013 08:30 3,3 C 93 % 1028,2 hPa 0,0 mm W 270 6,4 km/h (2 Bft)
11.11.2013 08:35 3,3 C 93 % 1028,3 hPa 0,0 mm W 270 6,4 km/h (2 Bft)
11.11.2013 08:40 3,3 C 93 % 1028,4 hPa 0,0 mm W 270 9,7 km/h (2 Bft)
11.11.2013 08:45 3,3 C 93 % 1028,5 hPa 0,0 mm W 270 6,4 km/h (2 Bft)
11.11.2013 08:50 3,4 C 93 % 1028,6 hPa 0,0 mm W 270 11,3 km/h (2 Bft)
11.11.2013 08:55 3,3 C 93 % 1028,6 hPa 0,0 mm W 270 6,4 km/h (2 Bft)
11.11.2013 09:00 3,4 C 92 % 1028,7 hPa 0,0 mm W 270 6,4 km/h (2 Bft)
11.11.2013 09:05 3,4 C 92 % 1028,8 hPa 0,0 mm W 270 4,8 km/h (1 Bft)
11.11.2013 09:10 3,6 C 92 % 1028,8 hPa 0,0 mm W 270 3,2 km/h (1 Bft)
11.11.2013 09:15 3,6 C 93 % 1028,9 hPa 0,0 mm W 270 4,8 km/h (1 Bft)
11.11.2013 09:20 3,6 C 92 % 1028,9 hPa 0,0 mm W 270 4,8 km/h (1 Bft)
11.11.2013 09:25 3,7 C 92 % 1028,9 hPa 0,0 mm W 270 6,4 km/h (2 Bft)
11.11.2013 09:30 3,7 C 92 % 1029,0 hPa 0,0 mm W 270 3,2 km/h (1 Bft)
11.11.2013 09:35 3,8 C 92 % 1029,0 hPa 0,0 mm W 270 8,0 km/h (2 Bft)
11.11.2013 09:40 3,9 C 92 % 1029,1 hPa 0,0 mm W 270 8,0 km/h (2 Bft)
11.11.2013 09:45 3,9 C 92 % 1029,2 hPa 0,0 mm W 270 6,4 km/h (2 Bft)
11.11.2013 09:50 4,0 C 92 % 1029,2 hPa 0,0 mm W 270 9,7 km/h (2 Bft)
11.11.2013 09:55 4,0 C 92 % 1029,2 hPa 0,0 mm W 270 9,7 km/h (2 Bft)
11.11.2013 10:00 4,1 C 92 % 1029,1 hPa 0,0 mm W 270 8,0 km/h (2 Bft)
11.11.2013 10:05 4,2 C 92 % 1029,2 hPa 0,0 mm W 270 6,4 km/h (2 Bft)
11.11.2013 10:10 4,3 C 91 % 1029,2 hPa 0,0 mm W 270 8,0 km/h (2 Bft)
11.11.2013 10:15 4,3 C 91 % 1029,2 hPa 0,0 mm W 270 8,0 km/h (2 Bft)
11.11.2013 10:20 4,2 C 91 % 1029,3 hPa 0,0 mm W 270 9,7 km/h (2 Bft)
11.11.2013 10:25 4,3 C 91 % 1029,3 hPa 0,0 mm W 270 11,3 km/h (2 Bft)
11.11.2013 10:30 4,3 C 91 % 1029,3 hPa 0,0 mm W 270 6,4 km/h (2 Bft)
11.11.2013 10:35 4,3 C 91 % 1029,4 hPa 0,0 mm W 270 6,4 km/h (2 Bft)
11.11.2013 10:40 4,2 C 91 % 1029,4 hPa 0,0 mm W 270 9,7 km/h (2 Bft)
11.11.2013 10:45 4,2 C 91 % 1029,3 hPa 0,0 mm W 270 9,7 km/h (2 Bft)
11.11.2013 10:50 4,3 C 91 % 1029,4 hPa 0,0 mm W 270 8,0 km/h (2 Bft)
11.11.2013 10:55 4,4 C 91 % 1029,4 hPa 0,0 mm W 270 11,3 km/h (2 Bft)
11.11.2013 11:00 4,4 C 90 % 1029,4 hPa 0,0 mm W 270 11,3 km/h (2 Bft)
11.11.2013 11:05 4,5 C 90 % 1029,4 hPa 0,0 mm W 270 9,7 km/h (2 Bft)
11.11.2013 11:10 4,5 C 90 % 1029,5 hPa 0,0 mm W 270 9,7 km/h (2 Bft)
11.11.2013 11:15 4,6 C 90 % 1029,4 hPa 0,0 mm W 270 9,7 km/h (2 Bft)
11.11.2013 11:20 4,6 C 90 % 1029,5 hPa 0,0 mm W 270 6,4 km/h (2 Bft)
11.11.2013 11:25 4,5 C 90 % 1029,4 hPa 0,0 mm W 270 11,3 km/h (2 Bft)
11.11.2013 11:30 4,3 C 90 % 1029,5 hPa 0,0 mm W 270 12,9 km/h (3 Bft)
11.11.2013 11:35 4,3 C 90 % 1029,5 hPa 0,0 mm W 270 12,9 km/h (3 Bft)
11.11.2013 11:40 4,3 C 90 % 1029,5 hPa 0,0 mm W 270 8,0 km/h (2 Bft)
11.11.2013 11:45 4,2 C 90 % 1029,6 hPa 0,0 mm W 270 11,3 km/h (2 Bft)
11.11.2013 11:50 4,2 C 90 % 1029,7 hPa 0,0 mm W 270 9,7 km/h (2 Bft)
11.11.2013 11:55 4,1 C 90 % 1029,7 hPa 0,0 mm W 270 8,0 km/h (2 Bft)
11.11.2013 12:00 4,1 C 90 % 1029,6 hPa 0,0 mm W 270 8,0 km/h (2 Bft)
11.11.2013 12:05 4,1 C 91 % 1029,7 hPa 0,0 mm W 270 8,0 km/h (2 Bft)
11.11.2013 12:10 4,1 C 91 % 1029,7 hPa 0,0 mm W 270 6,4 km/h (2 Bft)
11.11.2013 12:15 4,1 C 91 % 1029,8 hPa 0,0 mm W 270 4,8 km/h (1 Bft)
11.11.2013 12:20 4,1 C 91 % 1029,9 hPa 0,0 mm W 270 6,4 km/h (2 Bft)
11.11.2013 12:25 4,1 C 91 % 1030,0 hPa 0,0 mm W 270 4,8 km/h (1 Bft)
11.11.2013 12:30 4,2 C 91 % 1030,0 hPa 0,0 mm W 270 6,4 km/h (2 Bft)
11.11.2013 12:35 4,2 C 91 % 1029,9 hPa 0,0 mm W 270 6,4 km/h (2 Bft)
11.11.2013 12:40 4,3 C 91 % 1029,9 hPa 0,0 mm W 270 8,0 km/h (2 Bft)
11.11.2013 12:45 4,4 C 91 % 1029,9 hPa 0,0 mm W-NW 292 6,4 km/h (2 Bft)
11.11.2013 12:50 4,4 C 91 % 1029,9 hPa 0,0 mm W 270 6,4 km/h (2 Bft)
11.11.2013 12:55 4,4 C 90 % 1030,0 hPa 0,0 mm W 270 9,7 km/h (2 Bft)
11.11.2013 13:00 4,5 C 90 % 1029,9 hPa 0,0 mm W 270 4,8 km/h (1 Bft)
11.11.2013 13:05 4,6 C 90 % 1030,0 hPa 0,0 mm W 270 8,0 km/h (2 Bft)
11.11.2013 13:10 4,7 C 90 % 1029,9 hPa 0,0 mm W 270 8,0 km/h (2 Bft)
11.11.2013 13:15 4,6 C 90 % 1030,0 hPa 0,0 mm W 270 9,7 km/h (2 Bft)
11.11.2013 13:20 4,6 C 89 % 1030,0 hPa 0,0 mm W 270 8,0 km/h (2 Bft)
11.11.2013 13:25 4,5 C 89 % 1030,1 hPa 0,0 mm W 270 9,7 km/h (2 Bft)
11.11.2013 13:30 4,4 C 89 % 1030,2 hPa 0,0 mm W 270 8,0 km/h (2 Bft)
11.11.2013 13:35 4,3 C 89 % 1030,2 hPa 0,0 mm W-NW 292 4,8 km/h (1 Bft)
11.11.2013 13:40 4,3 C 90 % 1030,3 hPa 0,0 mm W-NW 292 3,2 km/h (1 Bft)
11.11.2013 13:45 4,3 C 90 % 1030,4 hPa 0,0 mm W 270 4,8 km/h (1 Bft)
11.11.2013 13:50 4,3 C 90 % 1030,5 hPa 0,0 mm W 270 4,8 km/h (1 Bft)
11.11.2013 13:55 4,3 C 90 % 1030,5 hPa 0,0 mm W 270 4,8 km/h (1 Bft)
11.11.2013 14:00 4,2 C 90 % 1030,5 hPa 0,0 mm W 270 4,8 km/h (1 Bft)
11.11.2013 14:05 4,2 C 90 % 1030,6 hPa 0,0 mm W 270 4,8 km/h (1 Bft)
11.11.2013 14:10 4,2 C 89 % 1030,8 hPa 0,0 mm W 270 6,4 km/h (2 Bft)
11.11.2013 14:15 4,1 C 89 % 1030,8 hPa 0,0 mm W 270 4,8 km/h (1 Bft)
11.11.2013 14:20 4,1 C 90 % 1030,7 hPa 0,0 mm W 270 4,8 km/h (1 Bft)
11.11.2013 14:25 4,1 C 90 % 1030,7 hPa 0,0 mm W 270 4,8 km/h (1 Bft)
11.11.2013 14:30 4,1 C 90 % 1030,7 hPa 0,0 mm W 270 3,2 km/h (1 Bft)
11.11.2013 14:35 4,1 C 90 % 1030,7 hPa 0,0 mm W 270 4,8 km/h (1 Bft)
11.11.2013 14:40 4,1 C 90 % 1030,8 hPa 0,0 mm W 270 3,2 km/h (1 Bft)
11.11.2013 14:45 4,1 C 89 % 1030,9 hPa 0,0 mm W-NW 292 3,2 km/h (1 Bft)
11.11.2013 14:50 4,2 C 89 % 1031,0 hPa 0,0 mm N 0 0,0 km/h (0 Bft)
11.11.2013 14:55 4,2 C 89 % 1030,9 hPa 0,0 mm W-NW 292 1,6 km/h (1 Bft)
11.11.2013 15:00 4,2 C 89 % 1030,8 hPa 0,0 mm W-NW 292 1,6 km/h (1 Bft)
11.11.2013 15:05 4,2 C 90 % 1030,9 hPa 0,0 mm W-NW 292 3,2 km/h (1 Bft)
11.11.2013 15:10 4,2 C 90 % 1030,8 hPa 0,0 mm W-NW 292 1,6 km/h (1 Bft)
11.11.2013 15:15 4,2 C 90 % 1030,9 hPa 0,0 mm W-NW 292 3,2 km/h (1 Bft)
11.11.2013 15:20 4,2 C 90 % 1030,9 hPa 0,0 mm W-NW 292 1,6 km/h (1 Bft)
11.11.2013 15:25 4,1 C 90 % 1030,9 hPa 0,0 mm W-NW 292 3,2 km/h (1 Bft)
11.11.2013 15:30 4,2 C 90 % 1030,8 hPa 0,0 mm W-NW 292 3,2 km/h (1 Bft)
11.11.2013 15:35 4,1 C 90 % 1031,2 hPa 0,0 mm W-NW 292 1,6 km/h (1 Bft)
11.11.2013 15:40 4,1 C 90 % 1031,2 hPa 0,0 mm W-NW 292 3,2 km/h (1 Bft)
11.11.2013 15:45 4,1 C 90 % 1031,3 hPa 0,0 mm W 270 4,8 km/h (1 Bft)
11.11.2013 15:50 4,1 C 90 % 1031,4 hPa 0,0 mm W 270 4,8 km/h (1 Bft)
11.11.2013 15:55 4,0 C 90 % 1031,4 hPa 0,0 mm W 270 4,8 km/h (1 Bft)
11.11.2013 16:00 4,0 C 90 % 1031,5 hPa 0,0 mm W 270 3,2 km/h (1 Bft)
11.11.2013 16:05 3,9 C 90 % 1031,6 hPa 0,0 mm W 270 4,8 km/h (1 Bft)
11.11.2013 16:10 3,9 C 90 % 1031,6 hPa 0,0 mm W 270 3,2 km/h (1 Bft)
11.11.2013 16:15 3,9 C 90 % 1031,7 hPa 0,0 mm W 270 3,2 km/h (1 Bft)
11.11.2013 16:20 3,9 C 90 % 1031,8 hPa 0,0 mm W 270 3,2 km/h (1 Bft)
11.11.2013 16:25 3,8 C 90 % 1031,8 hPa 0,0 mm W 270 1,6 km/h (1 Bft)
11.11.2013 16:30 3,8 C 90 % 1031,7 hPa 0,0 mm W 270 3,2 km/h (1 Bft)
11.11.2013 16:35 3,8 C 91 % 1031,8 hPa 0,0 mm W 270 1,6 km/h (1 Bft)
11.11.2013 16:40 3,8 C 91 % 1031,9 hPa 0,0 mm N 0 0,0 km/h (0 Bft)
11.11.2013 16:45 3,8 C 91 % 1031,9 hPa 0,0 mm W 270 3,2 km/h (1 Bft)
11.11.2013 16:50 3,8 C 91 % 1032,0 hPa 0,0 mm W 270 1,6 km/h (1 Bft)
11.11.2013 16:55 3,8 C 91 % 1032,1 hPa 0,0 mm N 0 0,0 km/h (0 Bft)
11.11.2013 17:00 3,8 C 91 % 1032,1 hPa 0,0 mm N 0 0,0 km/h (0 Bft)
11.11.2013 17:05 3,7 C 91 % 1032,0 hPa 0,0 mm N 0 0,0 km/h (0 Bft)
11.11.2013 17:10 3,6 C 91 % 1032,2 hPa 0,0 mm N 0 0,0 km/h (0 Bft)
11.11.2013 17:15 3,6 C 91 % 1032,3 hPa 0,0 mm N 0 0,0 km/h (0 Bft)
11.11.2013 17:20 3,4 C 92 % 1032,3 hPa 0,0 mm N 0 0,0 km/h (0 Bft)
11.11.2013 17:25 3,4 C 92 % 1032,2 hPa 0,0 mm N 0 0,0 km/h (0 Bft)
11.11.2013 17:30 3,4 C 92 % 1032,5 hPa 0,0 mm N 0 0,0 km/h (0 Bft)
11.11.2013 17:35 3,4 C 92 % 1032,4 hPa 0,0 mm N 0 0,0 km/h (0 Bft)
11.11.2013 17:40 3,3 C 92 % 1032,5 hPa 0,0 mm N 0 0,0 km/h (0 Bft)
11.11.2013 17:45 3,3 C 92 % 1032,5 hPa 0,0 mm W 270 1,6 km/h (1 Bft)
11.11.2013 17:50 3,3 C 92 % 1032,6 hPa 0,0 mm NW 315 3,2 km/h (1 Bft)
11.11.2013 17:55 3,2 C 92 % 1032,5 hPa 0,0 mm NW 315 1,6 km/h (1 Bft)
11.11.2013 18:00 3,2 C 92 % 1032,6 hPa 0,0 mm N 0 0,0 km/h (0 Bft)
11.11.2013 18:05 3,1 C 92 % 1032,7 hPa 0,0 mm N 0 0,0 km/h (0 Bft)
11.11.2013 18:10 3,1 C 92 % 1032,6 hPa 0,0 mm N 0 0,0 km/h (0 Bft)
11.11.2013 18:15 3,1 C 92 % 1032,8 hPa 0,0 mm N 0 0,0 km/h (0 Bft)
11.11.2013 18:20 3,2 C 93 % 1032,7 hPa 0,0 mm N 0 0,0 km/h (0 Bft)
11.11.2013 18:25 3,2 C 93 % 1032,6 hPa 0,0 mm N 0 0,0 km/h (0 Bft)
11.11.2013 18:30 3,2 C 93 % 1032,7 hPa 0,0 mm N 0 0,0 km/h (0 Bft)
11.11.2013 18:35 3,2 C 93 % 1032,8 hPa 0,0 mm NW 315 1,6 km/h (1 Bft)
11.11.2013 18:40 3,2 C 93 % 1032,7 hPa 0,0 mm NW 315 1,6 km/h (1 Bft)
11.11.2013 18:45 3,2 C 93 % 1032,7 hPa 0,0 mm N 0 0,0 km/h (0 Bft)
11.11.2013 18:50 3,1 C 93 % 1032,8 hPa 0,0 mm N 0 0,0 km/h (0 Bft)
11.11.2013 18:55 3,1 C 93 % 1032,8 hPa 0,0 mm N 0 0,0 km/h (0 Bft)
11.11.2013 19:00 2,9 C 93 % 1032,7 hPa 0,0 mm N 0 0,0 km/h (0 Bft)
11.11.2013 19:05 3,0 C 93 % 1032,8 hPa 0,0 mm N 0 0,0 km/h (0 Bft)
11.11.2013 19:10 3,1 C 93 % 1032,8 hPa 0,0 mm N 0 0,0 km/h (0 Bft)
11.11.2013 19:15 2,9 C 93 % 1032,7 hPa 0,0 mm N 0 0,0 km/h (0 Bft)
11.11.2013 19:20 2,9 C 93 % 1032,8 hPa 0,0 mm NW 315 1,6 km/h (1 Bft)
11.11.2013 19:25 2,9 C 93 % 1032,8 hPa 0,0 mm NW 315 3,2 km/h (1 Bft)
11.11.2013 19:30 2,9 C 93 % 1032,8 hPa 0,0 mm N 0 0,0 km/h (0 Bft)
11.11.2013 19:35 2,9 C 93 % 1032,7 hPa 0,0 mm N 0 0,0 km/h (0 Bft)
11.11.2013 19:40 2,9 C 93 % 1032,7 hPa 0,0 mm N 0 0,0 km/h (0 Bft)
11.11.2013 19:45 3,0 C 93 % 1032,7 hPa 0,0 mm N 0 0,0 km/h (0 Bft)
11.11.2013 19:50 3,0 C 93 % 1032,7 hPa 0,0 mm N 0 0,0 km/h (0 Bft)
11.11.2013 19:55 3,0 C 93 % 1032,9 hPa 0,0 mm N 0 0,0 km/h (0 Bft)
11.11.2013 20:00 3,0 C 93 % 1032,8 hPa 0,0 mm N 0 0,0 km/h (0 Bft)
11.11.2013 20:05 3,0 C 93 % 1032,8 hPa 0,0 mm N 0 0,0 km/h (0 Bft)
11.11.2013 20:10 2,9 C 93 % 1032,9 hPa 0,0 mm N 0 0,0 km/h (0 Bft)
11.11.2013 20:15 2,9 C 93 % 1032,8 hPa 0,0 mm N 0 0,0 km/h (0 Bft)
11.11.2013 20:20 2,9 C 93 % 1032,7 hPa 0,0 mm NW 315 1,6 km/h (1 Bft)
11.11.2013 20:25 3,0 C 93 % 1032,7 hPa 0,0 mm NW 315 1,6 km/h (1 Bft)
11.11.2013 20:30 2,9 C 93 % 1032,8 hPa 0,0 mm N 0 0,0 km/h (0 Bft)
11.11.2013 20:35 2,9 C 93 % 1032,8 hPa 0,0 mm N 0 0,0 km/h (0 Bft)
11.11.2013 20:40 2,9 C 93 % 1032,7 hPa 0,0 mm N 0 0,0 km/h (0 Bft)
11.11.2013 20:45 2,8 C 93 % 1032,7 hPa 0,0 mm N 0 0,0 km/h (0 Bft)
11.11.2013 20:50 2,7 C 93 % 1032,8 hPa 0,0 mm N 0 0,0 km/h (0 Bft)
11.11.2013 20:55 2,6 C 93 % 1032,6 hPa 0,0 mm N 0 0,0 km/h (0 Bft)
11.11.2013 21:00 2,5 C 93 % 1032,7 hPa 0,0 mm N 0 0,0 km/h (0 Bft)
11.11.2013 21:05 2,5 C 93 % 1032,7 hPa 0,0 mm N 0 0,0 km/h (0 Bft)
11.11.2013 21:10 2,4 C 93 % 1032,7 hPa 0,0 mm N 0 0,0 km/h (0 Bft)
11.11.2013 21:15 2,4 C 93 % 1032,7 hPa 0,0 mm N 0 0,0 km/h (0 Bft)
11.11.2013 21:20 2,4 C 93 % 1032,7 hPa 0,0 mm N 0 0,0 km/h (0 Bft)
11.11.2013 21:25 2,3 C 93 % 1032,7 hPa 0,0 mm N 0 0,0 km/h (0 Bft)
11.11.2013 21:30 2,2 C 93 % 1032,7 hPa 0,0 mm N 0 0,0 km/h (0 Bft)
11.11.2013 21:35 2,1 C 93 % 1032,7 hPa 0,0 mm N 0 0,0 km/h (0 Bft)
11.11.2013 21:40 2,2 C 93 % 1032,7 hPa 0,0 mm N 0 0,0 km/h (0 Bft)
11.11.2013 21:45 2,1 C 93 % 1032,7 hPa 0,0 mm N 0 0,0 km/h (0 Bft)
11.11.2013 21:50 2,0 C 93 % 1032,7 hPa 0,0 mm N 0 0,0 km/h (0 Bft)
11.11.2013 21:55 2,0 C 93 % 1032,6 hPa 0,0 mm N 0 0,0 km/h (0 Bft)
11.11.2013 22:00 2,0 C 93 % 1032,6 hPa 0,0 mm N 0 0,0 km/h (0 Bft)
11.11.2013 22:05 1,8 C 93 % 1032,6 hPa 0,0 mm N 0 0,0 km/h (0 Bft)
11.11.2013 22:10 1,7 C 93 % 1032,5 hPa 0,0 mm N 0 0,0 km/h (0 Bft)
11.11.2013 22:15 1,6 C 93 % 1032,5 hPa 0,0 mm N 0 0,0 km/h (0 Bft)
11.11.2013 22:20 1,6 C 93 % 1032,3 hPa 0,0 mm N 0 0,0 km/h (0 Bft)
11.11.2013 22:25 1,6 C 93 % 1032,3 hPa 0,0 mm N 0 0,0 km/h (0 Bft)
11.11.2013 22:30 1,6 C 93 % 1032,4 hPa 0,0 mm N 0 0,0 km/h (0 Bft)
11.11.2013 22:35 1,6 C 93 % 1032,4 hPa 0,0 mm N 0 0,0 km/h (0 Bft)
11.11.2013 22:40 1,6 C 93 % 1032,3 hPa 0,0 mm N 0 0,0 km/h (0 Bft)
11.11.2013 22:45 1,7 C 93 % 1032,3 hPa 0,0 mm N 0 0,0 km/h (0 Bft)
11.11.2013 22:50 1,7 C 93 % 1032,2 hPa 0,0 mm N 0 0,0 km/h (0 Bft)
11.11.2013 22:55 1,8 C 93 % 1032,3 hPa 0,0 mm N 0 0,0 km/h (0 Bft)
11.11.2013 23:00 1,8 C 93 % 1032,3 hPa 0,0 mm N 0 0,0 km/h (0 Bft)
11.11.2013 23:05 1,8 C 93 % 1032,2 hPa 0,0 mm NW 315 0,0 km/h (0 Bft)
11.11.2013 23:10 1,9 C 93 % 1032,2 hPa 0,0 mm NW 315 0,0 km/h (0 Bft)
11.11.2013 23:15 1,9 C 93 % 1032,3 hPa 0,0 mm NW 315 0,0 km/h (0 Bft)
11.11.2013 23:20 2,0 C 93 % 1032,3 hPa 0,0 mm NW 315 0,0 km/h (0 Bft)
11.11.2013 23:25 2,0 C 93 % 1032,2 hPa 0,0 mm NW 315 0,0 km/h (0 Bft)
11.11.2013 23:30 2,0 C 93 % 1032,1 hPa 0,0 mm NW 315 0,0 km/h (0 Bft)
11.11.2013 23:35 1,9 C 93 % 1032,0 hPa 0,0 mm NW 315 0,0 km/h (0 Bft)
11.11.2013 23:40 1,9 C 93 % 1032,2 hPa 0,0 mm NW 315 0,0 km/h (0 Bft)
11.11.2013 23:45 1,8 C 93 % 1032,2 hPa 0,0 mm NW 315 1,6 km/h (1 Bft)
11.11.2013 23:50 1,8 C 93 % 1032,1 hPa 0,0 mm NW 315 1,6 km/h (1 Bft)
11.11.2013 23:55 1,7 C 93 % 1032,1 hPa 0,0 mm NW 315 0,0 km/h (0 Bft)
_ Min-Zeit 00:45 13:20 00:00 - - - 06:00
Minimum _ 1,5 C 89 % 1018,5 hPa - - - 0,0 km/h (0 Bft)
_ Max-Zeit 13:10 00:00 19:55 00:50 - - 00:10
Maximum _ 4,7 C 93 % 1032,9 hPa 0,4 mm - - 16,1 km/h
W (3 Bft)
Durchschnitt _ 3,0 C 92 % 1028,5 hPa #5,2 mm W - 4,9 km/h (1 Bft)